Location: Bakhuizen
(52.8696°N, 5.4575°E)
Time: 09:11:04
(UTC+00:00)

ERBS - Pass Details

Date: 11 May 2021
Orbit: 399 x 417 km, 57.0° (Epoch: 15 June)

Event Time Altitude Azimuth Distance (km) Brightness Sun altitude
Rises 23:12:23 0° 294° (WNW) 2,357 6.5 -18.8°
Reaches altitude 10° 23:14:37 10° 284° (WNW) 1,494 5.3 -18.9°
Enters shadow 23:16:29 24° 257° (WSW) 910 3.8 -18.9°
